Location: Astronomy Club of Akron Observatory
(40.9700°N, 81.5606°W)
Time: 18:37:31
(UTC-04:00)

ISS - Pass Details

Date: 14 July 2018
Orbit: 402 x 408 km, 51.6° (Epoch: 19 July)

Event Time Altitude Azimuth Distance (km) Brightness Sun altitude
Rises 04:24:38 0° 304° (NW) 2,331 0.0 -15.7°
Reaches altitude 10° 04:27:36 10° 333° (NNW) 1,472 -0.7 -15.3°
Maximum altitude 04:29:16 13° 4° (N) 1,295 -0.5 -15.1°
Drops below altitude 10° 04:30:57 10° 34° (NE) 1,473 0.4 -14.9°
Sets 04:33:55 0° 64° (ENE) 2,334 1.4 -14.5°
